[[{"header":{"parameterUnit":"m.s-1","parameterCategory":1,"la1":30.2992,"la2":30.254,"lo1":-89.0895,"lo2":-89.0443,"dy":0.0025,"dx":0.0025,"nx":19,"ny":19,"refTime":"2026-03-20T03:00:00:Z","depth":0,"parameterNumber":2,"parameterNumberName":"U-component_of_WINDS"},"data":[0,0,0,0.813,0.813,0.8122,0.8122,0.8106,0.8106,0,0,0,0,0,0,0,0,0,0,0,0.813,0.8129,0.813,0.813,0.8122,0.8122,0.8106,0.8106,0,0,0,0,0,0,0,0,0,0,0,0.813,0.8129,0.8129,0.813,0.8122,0.8122,0.8106,0.8114,0,0,0,0,0,0,0,0,0,0,0.8123,0.8119,0.8129,0.8129,0.813,0.8122,0.8122,0.8115,0.8114,0.8108,0,0.8102,0,0.8104,0.8105,0.8105,0,0,0,0.8132,0.812,0.8121,0.8129,0.813,0.8122,0.8126,0.8114,0.8113,0.8106,0.8101,0.8101,0.8103,0.8105,0.8105,0.8064,0.8063,0,0,0.8133,0.8126,0.8122,0.812,0.8121,0.8127,0.8126,0.8114,0.8108,0.8101,0.8101,0.8103,0.8105,0.8104,0.8064,0.8063,0,0,0,0.8132,0.8126,0.8128,0.812,0.812,0.8126,0.8126,0.8108,0.8109,0.8101,0.8103,0.8104,0.8104,0.8064,0.8064,0.8043,0,0,0,0.8133,0.8126,0.8128,0.8124,0.812,0.8114,0.812,0.811,0.8109,0.8103,0.8104,0.8104,0.8064,0.8064,0.8044,0.8034,0,0,0,0.8131,0.8126,0.8124,0.8123,0.812,0.8114,0.8115,0.811,0.811,0.8105,0.8104,0.8065,0.8064,0.8045,0.8036,0.8021,0,0,0,0.8127,0.8105,0.8123,0.81,0.812,0.8102,0.8115,0.8102,0.8094,0.8104,0.8064,0.8064,0.8046,0.8037,0.8023,0.8008,0.8001,0,0,0.8095,0.8101,0.8087,0.8104,0.8081,0.8104,0.8078,0.8077,0.8082,0.8069,0.8068,0.8044,0.8036,0.8022,0.7967,0.7962,0,0,0,0.8075,0.8065,0.8061,0.8054,0.8054,0.8053,0.8057,0.8057,0.8047,0.8074,0.8035,0.8031,0.8023,0.8016,0.8011,0.8005,0.806,0.8061,0.8061,0.802,0.8029,0.8007,0.8016,0.8009,0.8015,0.801,0.8011,0.8021,0.8012,0.8008,0.7974,0.7966,0.7962,0.7955,0.8001,0.8001,0.8001,0.8001,0.7974,0.7961,0.7977,0.7962,0.7972,0.7959,0.7964,0.7972,0.7961,0.7977,0.797,0.7986,0.7956,0.7951,0.8,0.8,0.8,0.8,0.8,0.7938,0.7933,0.7935,0.7927,0.7921,0.793,0.792,0.7929,0.7937,0.7931,0.7928,0.7928,0.7929,0.7929,0.7929,0.7929,0.7929,0.7929,0.7929,0.7899,0.7902,0.7892,0.7892,0.7889,0.7888,0.7894,0.7892,0.7892,0.79,0.79,0.7911,0.7952,0.7962,0.7927,0.7927,0.7927,0.7928,0.7928,0.7848,0.7862,0.7847,0.7845,0.7846,0.7839,0.7851,0.7847,0.7846,0.7841,0.7854,0.7884,0.7889,0.7893,0.7901,0.7853,0.7853,0.7853,0.7853,0.7817,0.7822,0.781,0.7806,0.7803,0.7814,0.7797,0.7803,0.781,0.7811,0.782,0.7832,0.7835,0.7839,0.7844,0.7851,0.7791,0.7791,0.7791,0.7786,0.7791,0.7775,0.7784,0.7786,0.7787,0.7772,0.7767,0.7778,0.7789,0.7812,0.7814,0.7834,0.784,0.7849,0.7856,0.7871,0,0]},{"header":{"parameterUnit":"m.s-1","parameterCategory":1,"la1":30.2992,"la2":30.254,"lo1":-89.0895,"lo2":-89.0443,"dy":0.0025,"dx":0.0025,"nx":19,"ny":19,"refTime":"2026-03-20T03:00:00:Z","depth":0,"parameterNumber":3,"parameterNumberName":"V-component_of_WINDS"},"data":[0,0,0,-0.8896,-0.8898,-0.898,-0.898,-0.9083,-0.9083,0,0,0,0,0,0,0,0,0,0,0,-0.8869,-0.887,-0.8896,-0.8898,-0.898,-0.898,-0.9082,-0.9083,0,0,0,0,0,0,0,0,0,0,0,-0.8869,-0.887,-0.887,-0.8898,-0.898,-0.898,-0.9082,-0.9021,0,0,0,0,0,0,0,0,0,0,-0.8942,-0.8915,-0.8869,-0.887,-0.8898,-0.898,-0.898,-0.9018,-0.9025,-0.9044,0,-0.906,0,-0.9073,-0.909,-0.909,0,0,0,-0.8899,-0.8909,-0.8934,-0.8871,-0.8899,-0.898,-0.8943,-0.9022,-0.903,-0.9053,-0.9061,-0.9065,-0.9075,-0.9091,-0.9091,-0.9195,-0.9196,0,0,-0.8895,-0.8883,-0.8928,-0.8938,-0.8925,-0.8941,-0.8946,-0.9027,-0.9035,-0.9062,-0.9068,-0.9077,-0.9091,-0.9092,-0.9195,-0.9195,0,0,0,-0.8881,-0.8879,-0.8902,-0.8934,-0.8949,-0.8943,-0.8949,-0.9032,-0.904,-0.9069,-0.9078,-0.9092,-0.9093,-0.9194,-0.9195,-0.9205,0,0,0,-0.8878,-0.8871,-0.89,-0.8893,-0.8948,-0.8991,-0.8952,-0.9034,-0.9044,-0.9077,-0.9092,-0.9094,-0.9194,-0.9195,-0.9204,-0.9212,0,0,0,-0.8865,-0.887,-0.8881,-0.8892,-0.8928,-0.899,-0.9003,-0.9037,-0.9049,-0.9091,-0.9094,-0.9194,-0.9195,-0.9203,-0.921,-0.9237,0,0,0,-0.8847,-0.8887,-0.8881,-0.893,-0.8927,-0.8995,-0.9003,-0.9055,-0.9091,-0.9092,-0.9194,-0.9195,-0.9202,-0.9209,-0.9236,-0.9258,-0.9266,0,0,-0.8891,-0.8892,-0.8922,-0.8919,-0.8986,-0.8984,-0.9053,-0.9097,-0.9111,-0.9166,-0.9169,-0.9204,-0.921,-0.9237,-0.9313,-0.9319,0,0,0,-0.8932,-0.8953,-0.8974,-0.9008,-0.9043,-0.9075,-0.911,-0.9126,-0.9174,-0.9137,-0.9221,-0.9224,-0.9241,-0.9252,-0.9258,-0.9273,-0.9199,-0.9199,-0.9199,-0.8978,-0.8995,-0.9046,-0.9074,-0.9107,-0.9144,-0.9173,-0.9201,-0.9208,-0.9228,-0.9244,-0.9289,-0.9302,-0.9306,-0.9322,-0.9257,-0.9257,-0.9257,-0.9257,-0.9045,-0.9079,-0.9089,-0.9142,-0.916,-0.9205,-0.9242,-0.9246,-0.929,-0.9277,-0.9292,-0.9277,-0.9312,-0.9327,-0.9258,-0.9258,-0.9257,-0.9257,-0.9257,-0.9078,-0.9098,-0.9118,-0.9171,-0.921,-0.9236,-0.9279,-0.9294,-0.9308,-0.9323,-0.9343,-0.9343,-0.9346,-0.9331,-0.9332,-0.9332,-0.9332,-0.9332,-0.9332,-0.9105,-0.9127,-0.9162,-0.9204,-0.9229,-0.9264,-0.9302,-0.9327,-0.9359,-0.9366,-0.9367,-0.9373,-0.9312,-0.9297,-0.9335,-0.9334,-0.9334,-0.9334,-0.9333,-0.917,-0.9158,-0.9211,-0.9237,-0.9288,-0.9327,-0.9345,-0.9396,-0.9418,-0.944,-0.9443,-0.9395,-0.9397,-0.9393,-0.9381,-0.9437,-0.9437,-0.9438,-0.9438,-0.9198,-0.9201,-0.926,-0.93,-0.9341,-0.9363,-0.9425,-0.9455,-0.9485,-0.95,-0.9494,-0.9479,-0.9474,-0.9479,-0.9473,-0.9462,-0.9539,-0.9539,-0.9539,-0.924,-0.9247,-0.9297,-0.9326,-0.9368,-0.9404,-0.9463,-0.9509,-0.9539,-0.9543,-0.9513,-0.9509,-0.9485,-0.9476,-0.948,-0.947,-0.9451,0,0]}]]